Regional Weather Roundup
Issued by NWS Newport/Morehead, NC

Current Version | Previous Version | Graphics & Text | Print | Product List | Glossary Off
Versions: 1 2 3 4 5 6 7 8 9 10 11 12 13 14 15 16 17 18 19 20 21 22 23 24 25 26 27 28 29 30 31 32 33 34 35 36 37 38 39 40 41 42 43 44 45 46 47 48 49 50

639
ASUS42 KMHX 232225
RWRMHX
WEATHER ROUNDUP FOR EASTERN NORTH CAROLINA
NATIONAL WEATHER SERVICE NEWPORT/MOREHEAD CITY NC
600 PM EDT MON MAY 23 2016

NOTE: "FAIR" INDICATES FEW OR NO CLOUDS BELOW 12,000 FEET
WITH NO SIGNIFICANT WEATHER AND/OR OBSTRUCTIONS TO VISIBILITY

NCZ015>017-031-032-045>047-102-103-232300-
NORTH COAST

CITY           SKY/WX    TMP DP  RH WIND       PRES   REMARKS
EDENTON        CLOUDY   N/A N/A N/A N3        29.94R
ELIZABETH CITY CLOUDY    63  54  72 NW12      29.91R
KITTY HAWK     CLOUDY    60  52  76 N5        29.89S
MANTEO         CLOUDY    60  55  83 N10G18    29.91R

$$

NCZ045>047-081-094-103-104-232300-
CENTRAL COAST

CITY           SKY/WX    TMP DP  RH WIND       PRES   REMARKS
FRISCO         CLOUDY    61  57  87 N8        29.89R

$$

NCZ095-097-098-100-101-232300-
SOUTHERN COAST

CITY           SKY/WX    TMP DP  RH WIND       PRES   REMARKS
BEAUFORT       MOSUNNY   67  56  67 N12       29.92R
CEDAR ISLAND   NOT AVBL
JACKSONVILLE   LGT RAIN  64  57  78 NW6       29.93R
PINEY ISLAND   MOCLDY   N/A N/A N/A NW12      29.92
WILMINGTON     CLOUDY    66  55  67 NW15G23   29.94S


$$

NCZ011>013-027>030-043-044-078>080-089-090>093-098-232300-
COASTAL PLAIN

CITY           SKY/WX    TMP DP  RH WIND       PRES   REMARKS
AHOSKIE        CLOUDY    62  55  77 CALM      29.94S
CLINTON        PTSUNNY   63  57  81 CALM      29.98R
ELIZABETHTOWN  RAIN      60  58  94 CALM      29.98R
GOLDSBORO      CLOUDY    66  55  66 N6        29.94R
GREENVILLE     CLOUDY    63  55  77 N5        29.97S
HAVELOCK       LGT RAIN  67  56  67 N10       29.93R
KENANSVILLE    CLOUDY    63  55  75 CALM      29.97R
KINSTON        PTSUNNY   66  55  68 N10       29.95R
NEW BERN       CLOUDY    63  57  81 CALM      29.94R
RICHLANDS      CLOUDY    63  60  90 W3        29.95R
ROCKY MOUNT    CLOUDY    61  55  81 NE6       29.96R
WASHINGTON     PTSUNNY   63  54  72 NW6       29.94R
WHITEVILLE     CLOUDY    66  54  64 NW3       29.96S

$$

AMZ130-135-150-152-154-156-158-170-250-252-270-ANZ085-086-088-633-658-670-232300-
MARINE OBSERVATIONS

STATION/POSITION TIME  TEMP    WIND        PRES    WAVE   SWELL
                       AIR SEA DIR/SP/G            HT/PER HT/PER
                 (UTC) (F)     (DEG/KT/KT) (MB)    (FT/S) (FT/S)
CHESAPEAKE LIGHT 2200   58      40/ 20/ 21 1012.7
64 E VA BEACH    2150   55 57  360/ 17/ 21 1010.6    8/ 8   7/ 8
DUCK             2200   59 63              1011.6
2 E DUCK         2111      61                N/A     5/ 8   2/11
OREGON INLET     2200   60 65              1012.1
13E OREGON INLT  2200      62                N/A     6/ 8   5/ 8
HATTERAS CG      2200   62 67              1011.8
DIAMOND BUOY     2150   60 67  340/ 10/ 12 1012.2    3/ 9   2/ 9
CAPE LOOKOUT     2200   65     340/ 12/ 14 1012.5
BEAUFORT LAB     2200   66 68              1012.2
30 SE NEW RVR IN 2125      73                N/A     3/ 4
27 SE WRIGHTSVLE 2208   69 73  330/ 14/ 17 1012.8
5 SE WRIGHTSVLE  2208   68 72  340/ 16/ 21 1013.9
225 S CAPE HAT   2150   74 77  300/ 10/ 14 1013.1    5/ 7   3/ 7
41 SE CHARLESTON 2150   72 76  360/  6/  8 1014.1    2/ 9   2/ 9

$$




USA.gov is the U.S. government's official web portal to all federal, state and local government web resources and services.